Regional Weather Roundup
Issued by NWS

Home | Current Version | Previous Version | Graphics & Text | Print | Product List | Glossary On
Versions: 1 2 3 4 5 6 7 8 9 10 11 12 13 14 15 16 17 18 19 20 21 22 23 24 25 26 27 28 29 30 31 32 33 34 35 36 37 38 39 40 41 42 43 44 45 46 47 48 49 50
000
ASUS43 KDMX 282301
RWRIA

WEATHER ROUNDUP FOR IOWA
NATIONAL WEATHER SERVICE DES MOINES IA
600 PM CDT SUN MAY 28 2017

NOTE: "FAIR" INDICATES FEW OR NO CLOUDS BELOW 12,000 FEET WITH NO
SIGNIFICANT WEATHER AND/OR OBSTRUCTIONS TO VISIBILITY.

* - THESE STATIONS ARE NOT NWS STATIONS...THUS NOT UNDER NWS
QUALITY CONTROL.  THEY ALSO DO NOT REPORT WEATHER SUCH
AS PRECIPITATION OR FOG.

IAZ001>003-012>014-020>022-031>034-043>046-290000-
   NORTHWEST IOWA

CITY           SKY/WX    TMP DP  RH WIND       PRES   REMARKS
CARROLL *      MOSUNNY   79  41  25 NW21G32   29.85S
CHEROKEE *     MOSUNNY   74  41  30 W13G22    29.85F
DENISON *      SUNNY     75  41  29 NW20G31   29.89S
LE MARS *      MOSUNNY   75  39  27 NW16G25   29.87F
ORANGE CITY *  MOSUNNY   73  43  33 NW22      29.85F
SHELDON *      SUNNY     75  36  23 NW18G28   29.83S
SIOUX CITY     MOSUNNY   77  42  28 NW18      29.86F
SPENCER        MOSUNNY   74  38  27 NW23G31   29.83S
STORM LAKE *   SUNNY     75  39  27 NW18G26   29.86S
$$

IAZ055>058-069>071-079>083-090>094-290000-
   SOUTHWEST IOWA

CITY           SKY/WX    TMP DP  RH WIND       PRES   REMARKS
ATLANTIC *     SUNNY     75  41  29 MISG      29.87S
AUDUBON *      SUNNY     75  36  23 NW16G23   29.88S
CLARINDA *     MOSUNNY   81  45  28 N14G22    29.89S
COUNCIL BLFS * SUNNY     77  39  25 NW18      29.90R
CRESTON *      MOSUNNY   77  46  33 NW23G30   29.87S
HARLAN  *      SUNNY     75  39  27 NW22G32   29.92R
LAMONI         MOSUNNY   78  50  37 W15       29.86F
RED OAK *      SUNNY     79  39  24 NW23      29.88R
SHENANDOAH *   MOSUNNY   79  41  25 NW16G25   29.88S
$$

IAZ047>049-059>061-072>074-084-290000-
   CENTRAL IOWA

CITY           SKY/WX    TMP DP  RH WIND       PRES   REMARKS
AMES           SUNNY     77  42  28 W21G26    29.80S
ANKENY *       MOSUNNY   79  41  25 W21G28    29.81F
BOONE *        MOSUNNY   77 -33   1 NW16G25   29.81S
CHARITON *     MOSUNNY   77  52  41 W9G20     29.83F
DES MOINES     MOSUNNY   80  40  23 W25G33    29.80F
GRINNELL*      MOSUNNY   77  43  30 W15G23    29.81F
KNOXVILLE *    PTSUNNY   79  46  31 W17       29.80S
MARSHALLTOWN   PTSUNNY   77  44  30 W21       29.78S
NEWTON *       MOSUNNY   79  41  25 W20G31    29.79F
PELLA *        SUNNY     80  43  27 NW14      29.81F
PERRY *          N/A     78  32  19 NW20G28   29.84S
$$

IAZ004>006-015-016-023>025-035-036-290000-
   NORTH CENTRAL IOWA

CITY           SKY/WX    TMP DP  RH WIND       PRES   REMARKS
ALGONA *       MOSUNNY   75  41  29 NW22G30   29.81S
CLARION *      PTSUNNY   75  37  25 NW25      29.80S
ESTHERVILLE    PTSUNNY   74  39  28 NW25G31   29.80F
FORT DODGE *   MOSUNNY   73  41  31 NW14G21   29.83S
MASON CITY     PTSUNNY   74  40  29 W23       29.80S
FOREST CITY *    N/A     73  23  15 W16G26    29.79S
WEBSTER CITY * MOSUNNY   77  39  25 W25       29.79S
$$

IAZ007>011-017>019-026>030-037>042-050>054-066-290000-
   NORTHEAST IOWA

CITY           SKY/WX    TMP DP  RH WIND       PRES   REMARKS
CEDAR RAPIDS   SUNNY     75  50  41 W17G23    29.77F
CHARLES CITY * MOSUNNY   75  39  27 NW21G28   29.78S
CLINTON *      SUNNY     76  49  38 W18       29.77S
DECORAH *      MOSUNNY   72  41  33 NW14G24   29.75S
DUBUQUE        SUNNY     73  44  35 NW16G25   29.76F
MONTICELLO *   MOSUNNY   77  45  31 NW14G22   29.76S
OELWEIN *      MOSUNNY   75  41  29 NW17G25   29.77S
WATERLOO       MOSUNNY   76  41  28 NW12      29.76S
$$

IAZ064-065-067-068-078-290000-
   EAST CENTRAL IOWA

CITY           SKY/WX    TMP DP  RH WIND       PRES   REMARKS
DAVENPORT      SUNNY     77  45  32 W21       29.79R
IOWA CITY      MOSUNNY   77  50  38 W12       29.80F
MT. PLEASANT * SUNNY     78  42  27 NW13      29.81F
MUSCATINE *    SUNNY     79  46  31 W18       29.80S
QUAD CITIES    SUNNY     76  46  34 W17G24    29.78R
$$

IAZ062-063-075>077-085>089-095>099-290000-
   SOUTHEAST IOWA

CITY           SKY/WX    TMP DP  RH WIND       PRES   REMARKS
BURLINGTON     SUNNY     78  46  32 NW12      29.81S
FAIRFIELD *    MOSUNNY   77  46  33 W14       29.81F
FORT MADISON * SUNNY     81  45  28 NW12      29.83S
KEOKUK *       SUNNY     79  45  29 NW13G20   29.83S
OSKALOOSA *    PTSUNNY   79  44  28 W21       29.81F
OTTUMWA        MOSUNNY   78  46  32 W16G25    29.81F
WASHINGTON *   MOSUNNY   79  46  31 W14G21    29.81F
$$

ABBREVIATIONS USED IN REMARKS
   TC - TEMPERATURES IN CELSIUS
  WCI - WIND CHILL INDEX
   HX - HEAT INDEX
  VSB - VISIBILITY
$$





USA.gov is the U.S. government's official web portal to all federal, state and local government web resources and services.